Location: Copeville
(33.0796°N, 96.4155°W)
Time: 20:01:06
(UTC+00:00)

NOAA 19 - Pass Details

Date: 09 April 2023
Orbit: 840 x 859 km, 99.1° (Epoch: 31 May)

Event Time Altitude Azimuth Distance (km) Brightness Sun altitude
Exits shadow 03:11:31 17° 209° (SSW) 1,996 7.1 -28.3°
Maximum altitude 03:14:54 32° 262° (W) 1,408 6.7 -28.9°
Drops below altitude 10° 03:19:45 10° 325° (NW) 2,463 8.4 -29.8°
Sets 03:22:22 0° 335° (NNW) 3,400 9.2 -30.2°
